Los Angeles Downtown, CA

10:10 AM PDT on April 25, 2017 (GMT -0700)
Los Angeles Downtown

Weather History for KCQT - January, 2014

Change the Weather History Date:

Tuesday, January 21, 2014

  Actual Average Record
Temperature  
Mean Temperature 66 °F 58 °F  
Max Temperature 78 °F 68 °F 81 °F (1912)
Min Temperature 54 °F 48 °F 32 °F (1937)
Degree Days  
Heating Degree Days 0 7  
Month to date heating degree days 61 153  
Since 1 July heating degree days 341 518  
Cooling Degree Days 1 0  
Month to date cooling degree days 14 0  
Year to date cooling degree days 14 0  
Growing Degree Days 16 (Base 50)    
Moisture  
Dew Point 32 °F    
Average Humidity 45    
Maximum Humidity 77    
Minimum Humidity 13    
Precipitation  
Precipitation 0.00 in 0.09 in 2.98 in (1909)
Month to date precipitation 0.00 2.14  
Year to date precipitation 0.00 2.14  
Since 1 July precipitation 0.97  
Sea Level Pressure  
Sea Level Pressure 30.09 in    
Wind  
Wind Speed 0 mph (NNE)    
Max Wind Speed 5 mph    
Max Gust Speed -    
Visibility 10 miles    
Events      
T = Trace of Precipitation, MM = Missing Value Source: NWS Daily Summary

Daily Weather History Graph

Daily Weather History Graph

Search for Another Location

Airport or City:

Trip Planner

Search our weather history database for the weather conditions in past years. The results will help you decide how hot, cold, wet, or windy it might be!

Date:

Astronomy

Jan. 21, 2014 Rise Set
Actual Time 6:56 AM PST 5:12 PM PST
Civil Twilight 6:29 AM PST 5:39 PM PST
Nautical Twilight 5:59 AM PST 6:10 PM PST
Astronomical Twilight 5:29 AM PST 6:39 PM PST
Moon 10:32 PM PST (1/21) 9:44 AM PST (1/21)
Length of Visible Light 11h 10m
Length of Day
10h 16m
Waning Gibbous, 73% of the Moon is Illuminated
Jan 21
Waning Gibbous
Jan 23
Last Quarter
Jan 30
New
Feb 6
First Quarter
Feb 14
Full

Hourly Weather History & Observations

Time (PST) Temp. Dew Point Humidity Pressure Visibility Wind Dir Wind Speed Gust Speed Precip Events Conditions
12:47 AM 54.0 °F 39.9 °F 59% 30.14 in 10.0 mi Calm Calm - N/A   Clear
1:47 AM 55.9 °F 30.0 °F 37% 30.14 in 10.0 mi Calm Calm - N/A   Clear
2:47 AM 54.0 °F 30.9 °F 41% 30.14 in 10.0 mi Calm Calm - N/A   Clear
3:47 AM 54.0 °F 28.9 °F 38% 30.14 in 10.0 mi Calm Calm - N/A   Clear
4:47 AM 59.0 °F 21.9 °F 24% 30.12 in 10.0 mi NNE 4.6 mph - N/A   Clear
6:47 AM 57.9 °F 23.0 °F 26% 30.13 in 10.0 mi Calm Calm - N/A   Clear
7:47 AM 57.0 °F 28.9 °F 34% 30.14 in 10.0 mi Calm Calm - N/A   Clear
8:47 AM 66.0 °F 28.0 °F 24% 30.15 in 10.0 mi Calm Calm - N/A   Clear
9:47 AM 73.0 °F 19.0 °F 13% 30.14 in 10.0 mi Calm Calm - N/A   Clear
10:47 AM 73.9 °F 24.1 °F 16% 30.13 in 10.0 mi Calm Calm - N/A   Clear
11:47 AM 75.9 °F 21.0 °F 13% 30.09 in 10.0 mi Calm Calm - N/A   Clear
12:47 PM 75.9 °F 23.0 °F 14% 30.06 in 10.0 mi Calm Calm - N/A   Clear
1:47 PM 77.0 °F 23.0 °F 13% 30.05 in 10.0 mi Calm Calm - N/A   Clear
2:47 PM 75.0 °F 35.1 °F 23% 30.04 in 10.0 mi Calm Calm - N/A   Clear
3:47 PM 73.9 °F 37.0 °F 26% 30.05 in 10.0 mi Calm Calm - N/A   Clear
4:47 PM 69.1 °F 30.9 °F 24% 30.06 in 10.0 mi Calm Calm - N/A   Clear
5:47 PM 66.9 °F 30.0 °F 25% 30.06 in 10.0 mi Calm Calm - N/A   Clear
6:47 PM 64.9 °F 37.9 °F 37% 30.06 in 10.0 mi Calm Calm - N/A   Clear
7:47 PM 62.1 °F 43.0 °F 50% 30.06 in 10.0 mi Calm Calm - N/A   Clear
8:47 PM 62.1 °F 50.0 °F 65% 30.06 in 10.0 mi Calm Calm - N/A   Clear
9:47 PM 61.0 °F 48.9 °F 64% 30.06 in 10.0 mi Calm Calm - N/A   Clear
10:47 PM 61.0 °F 50.0 °F 67% 30.06 in 10.0 mi Calm Calm - N/A   Clear
11:47 PM 61.0 °F 39.9 °F 46% 30.04 in 10.0 mi Calm Calm - N/A   Clear